This demonstration page uses our WeatherBlox Daily Observations layout. Learn more.

Left ArrowRight Arrow

41.86663, -103.66717

Hourly Observations for December 11, 2020

Temp ( °F °C ) Dew Point ( °F °C ) Humidity (%) Winds ( mph kmh ) Pressure ( in mb ) Visibility ( mi km ) Precip ( " mm )
12:53 am 00:53 Mostly Cloudy 26 -3.3 19 -7.2 75 75 NW 3 6 30.09 1019 10 16 0.00 0.00
1:53 am 01:53 Mostly Cloudy 28 -2.2 19 -7.2 69 69 NE 6 9 30.07 1018 10 16 0.00 0.00
2:53 am 02:53 Cloudy 27 -2.8 19 -7.2 72 72 VRB 3 6 30.07 1018 10 16 0.00 0.00
3:53 am 03:53 Cloudy 28 -2.2 19 -7.2 69 69 Calm 30.07 1018 10 16 0.00 0.00
4:53 am 04:53 Cloudy 27 -2.8 19 -7.2 72 72 ESE 6 9 30.06 1018 10 16 0.00 0.00
5:53 am 05:53 Cloudy 27 -2.8 19 -7.2 72 72 Calm 30.07 1018 10 16 0.00 0.00
6:53 am 06:53 Cloudy 26 -3.3 20 -6.7 78 78 Calm 30.09 1019 8 13 0.00 0.00
7:53 am 07:53 Cloudy 26 -3.3 21 -6.1 81 81 NW 3 6 30.09 1019 10 16 0.00 0.00
8:53 am 08:53 Cloudy with Haze 28 -2.2 21 -6.1 75 75 NNW 3 6 30.10 1019 6 10 0.00 0.00
9:53 am 09:53 Cloudy 29 -1.7 21 -6.1 72 72 Calm 30.10 1019 10 16 0.00 0.00
10:29 am 10:29 Cloudy 30 -1.1 20 -6.7 66 66 NW 5 7 30.14 1021 10 16 0.00 0.00
10:53 am 10:53 Cloudy 30 -1.1 20 -6.7 66 66 NNW 6 9 30.09 1019 10 16 0.00 0.00
11:33 am 11:33 Cloudy 32 0 19 -7.2 59 59 Calm 30.10 1019 10 16 0.00 0.00
11:53 am 11:53 Cloudy 32 0 18 -7.8 56 56 NNE 5 7 30.06 1018 10 16 0.00 0.00
12:53 pm 12:53 Cloudy 33 0.6 19 -7.2 56 56 W 5 7 30.04 1017 10 16 0.00 0.00
1:53 pm 13:53 Cloudy 34 1.1 19 -7.2 54 54 W 6 9 30.03 1017 10 16 0.00 0.00
2:53 pm 14:53 Mostly Cloudy 33 0.6 21 -6.1 61 61 W 10 17 30.04 1017 10 16 0.00 0.00
3:53 pm 15:53 Cloudy 32 0 21 -6.1 64 64 WNW 9 15 30.06 1018 10 16 0.00 0.00
4:53 pm 16:53 Cloudy 30 -1.1 21 -6.1 69 69 WNW 7 11 30.08 1019 10 16 0.00 0.00
5:53 pm 17:53 Cloudy 30 -1.1 21 -6.1 69 69 WNW 5 7 30.10 1019 10 16 0.00 0.00
6:53 pm 18:53 Cloudy 29 -1.7 22 -5.6 75 75 WNW 7 11 30.12 1020 10 16 0.00 0.00
7:53 pm 19:53 Cloudy 29 -1.7 23 -5 78 78 NW 7 11 30.13 1020 10 16 0.00 0.00
8:53 pm 20:53 Cloudy with Light Snow 28 -2.2 23 -5 81 81 Calm 30.12 1020 5 8 0.00 0.00
9:53 pm 21:53 Cloudy 28 -2.2 23 -5 81 81 Calm 30.10 1019 10 16 0.00 0.00
10:53 pm 22:53 Cloudy 22 -5.6 19 -7.2 89 89 E 3 6 30.12 1020 10 16 0.00 0.00
11:53 pm 23:53 Cloudy 23 -5 19 -7.2 85 85 Calm 30.09 1019 9 14 0.00 0.00

Powered by AerisWeather